Back to catalog

BRO-6

AliveScienceSSO
NORAD 52422·PAYLOAD·🇫🇷 France

Launched May 2, 2022 from Rocket Lab Launch Complex 1

Loading…

Next Passes (next 24 hours)

TLE

FreshSource: Space-Track

Epoch: Sep 14, 2026, 12:28 UTC

1 52422U 22047AE  26257.51976332  .00039531  00000-0  53674-3 0  9997
2 52422  97.3364 350.7153 0005266 102.4505 257.7340 15.57515449245026

Track BRO-6 in real time with AllMySat

Download on the App Store